GFSMW_700_spd_000.txt.gz
Wind_Speed
16 16 15 15 12 12 12 10 9 9 11 6 5 5 6 7 7 9 11 12 14 15 15 16 18 20 17 16 15 16 16 17 12 10 10 10 12 13 12 12 13 13 12
24 22 21 19 15 13 11 10 8 5 4 8 8 6 4 2 3 4 4 6 9 9 9 9 11 12 13 13 14 14 14 13 12 10 8 11 12 13 12 12 12 13 13
16 19 19 15 14 12 10 9 8 8 11 13 13 14 13 11 10 10 9 9 9 9 9 9 10 12 13 15 15 14 13 11 10 10 10 8 9 10 14 14 14 14 15
19 19 19 16 15 15 15 13 13 13 13 12 12 13 14 15 16 17 18 17 14 12 10 11 11 12 14 14 15 14 12 11 11 11 11 10 8 8 10 13 14 15 15
21 20 19 17 14 16 16 18 17 16 15 15 13 12 11 11 11 12 15 17 17 18 15 13 13 14 15 14 14 13 13 13 13 12 12 13 13 12 9 10 13 16 17
23 22 20 17 17 15 17 20 20 19 17 17 16 14 12 8 5 6 9 12 14 19 20 20 18 17 16 14 13 12 11 12 13 14 13 13 14 16 18 16 13 13 14
27 25 23 21 20 18 16 16 19 18 17 16 15 13 11 8 4 1 5 10 13 16 19 22 22 19 18 15 13 12 11 12 13 14 15 15 17 19 21 21 21 17 16
21 29 26 23 21 17 15 15 17 19 18 17 17 15 14 11 8 6 6 10 12 15 17 19 22 19 17 15 14 13 13 14 15 16 17 17 19 21 21 22 23 24 21
22 24 24 26 23 21 17 14 14 17 22 21 22 20 18 17 14 12 11 13 13 14 16 19 22 21 19 18 16 14 15 15 16 17 18 18 19 19 21 21 24 27 28
20 23 24 22 20 19 19 19 18 17 19 23 25 25 23 23 22 20 17 16 17 17 18 19 19 21 18 17 17 15 16 15 15 15 17 17 19 21 23 25 27 30 32
18 15 20 21 17 13 17 18 21 22 23 23 26 31 31 30 30 26 23 20 22 21 21 20 17 19 17 17 17 17 17 17 17 17 19 19 21 22 24 26 29 31 33
19 16 16 18 20 20 20 21 22 24 22 27 29 29 36 36 35 32 27 25 25 23 24 19 18 18 17 17 16 17 16 15 15 17 19 19 23 24 25 28 31 32 31
20 20 20 20 21 21 22 22 23 22 23 29 33 33 35 39 37 36 32 32 26 25 23 21 17 16 17 17 16 18 15 15 16 19 20 21 24 22 25 27 30 32 32
23 17 18 19 24 23 22 19 21 21 25 29 33 38 38 37 44 42 31 27 24 25 23 20 15 14 15 15 16 17 16 16 17 18 20 23 26 25 25 27 31 33 34
25 21 15 19 23 20 18 14 17 23 23 24 27 31 36 45 44 47 28 25 25 27 24 20 15 13 15 16 18 17 18 19 18 19 23 24 27 28 27 26 25 28 30
17 22 20 23 18 17 16 15 21 21 20 23 23 24 34 45 48 43 26 24 29 28 24 19 16 15 17 21 22 21 23 22 23 24 23 25 31 30 29 30 32 31 32
19 23 22 21 18 19 21 24 26 28 29 27 26 29 29 33 45 38 26 27 34 28 25 21 17 16 21 23 26 26 26 26 29 30 28 32 32 31 30 32 37 36 34
23 24 23 16 17 19 18 18 19 23 27 30 31 31 34 32 39 37 32 28 27 27 23 22 20 20 23 27 27 26 26 28 30 30 34 34 32 28 32 37 37 27 29
30 24 20 19 16 14 13 10 8 13 17 21 24 28 30 30 35 33 16 22 28 25 22 22 25 25 28 29 28 31 27 32 30 32 33 33 33 30 33 34 29 26 29
33 29 23 18 15 10 8 4 11 15 17 19 24 24 28 28 27 22 20 26 29 28 28 30 32 31 31 25 33 30 28 31 31 32 33 33 35 35 37 33 31 29 30
30 24 22 16 9 6 6 10 12 28 33 29 24 26 30 26 25 23 26 28 32 28 30 32 31 37 42 22 26 29 32 31 32 31 30 32 32 32 33 33 29 29 30
24 23 15 9 11 13 19 27 31 37 29 27 26 26 28 26 26 24 28 27 26 29 37 29 40 47 39 19 23 30 30 31 29 29 29 29 31 31 31 29 27 29 31
24 21 18 16 27 30 28 33 31 29 30 30 28 27 22 21 23 26 27 32 31 32 34 27 29 22 25 22 26 27 28 29 28 26 27 28 31 30 25 24 24 27 30
19 23 35 34 30 31 33 35 35 31 29 29 24 25 18 24 26 28 32 33 29 34 32 20 26 25 19 22 26 28 28 28 26 26 27 29 29 25 23 21 25 25 27
27 28 33 37 39 35 33 35 31 22 23 23 23 21 20 28 25 28 33 33 26 27 18 19 25 23 21 24 27 29 29 28 25 25 28 28 27 21 20 23 25 27 28
25 19 21 22 27 32 28 22 19 18 17 17 9 11 12 18 16 22 26 22 23 17 19 19 22 22 24 28 30 31 30 26 26 25 25 27 15 13 18 23 25 26 25

GFSMW_700_spd_003.txt.gz
Wind_Speed
18 19 19 19 17 15 14 13 13 11 14 10 11 11 11 13 12 13 13 11 12 13 13 14 16 17 18 15 14 15 14 14 11 11 12 9 10 10 8 9 9 9 9
25 23 22 22 20 16 13 14 13 11 11 12 11 10 10 9 9 7 5 5 5 4 4 6 7 8 11 13 14 15 13 11 9 9 11 11 11 11 10 10 9 9 9
27 28 29 25 21 19 15 14 12 12 14 16 15 14 12 12 11 9 8 6 5 5 6 6 7 8 10 11 11 11 10 9 9 9 9 9 10 11 11 11 11 12 12
25 27 29 26 23 18 18 18 17 16 16 17 17 17 17 16 14 13 13 12 12 11 10 10 10 11 11 11 11 10 9 9 9 9 8 7 8 9 11 13 14 15 15
21 22 22 21 18 20 20 20 19 19 17 17 16 16 17 16 13 11 9 9 11 12 12 13 12 12 12 12 11 11 10 10 9 9 8 9 9 9 8 9 12 16 17
23 22 22 23 23 22 22 21 20 18 18 17 16 16 15 14 12 8 7 6 7 8 11 12 14 15 14 14 13 12 12 10 10 9 8 9 11 13 14 12 13 14 16
26 27 27 28 27 24 22 21 20 20 20 18 17 17 16 14 13 9 5 1 3 6 9 12 14 16 16 15 14 13 12 12 11 11 10 11 13 14 16 18 18 18 18
34 30 29 29 28 24 21 21 21 23 22 20 19 20 19 16 13 10 7 7 8 9 12 14 17 17 19 18 16 13 12 12 13 13 11 13 16 16 18 19 20 20 19
22 29 33 32 28 25 22 18 20 21 25 22 24 23 23 21 18 15 12 12 13 15 16 17 17 18 18 19 16 15 14 13 14 15 14 16 18 18 19 21 23 24 25
23 25 27 34 33 26 23 21 18 19 20 26 27 26 26 25 24 22 21 17 17 17 18 19 18 19 19 18 17 16 15 14 16 17 18 19 20 20 19 20 23 24 27
23 27 23 24 24 24 25 22 23 22 22 21 23 27 30 31 29 26 26 27 20 27 20 22 21 20 19 19 16 15 15 14 14 16 17 18 18 20 22 23 24 25 28
23 29 22 21 25 25 25 27 25 25 22 22 24 25 28 37 29 36 26 32 29 20 24 25 24 23 23 19 15 14 14 14 13 15 18 19 20 20 22 24 24 27 28
22 26 23 24 26 27 28 28 29 27 22 24 24 27 30 34 40 38 42 39 30 24 23 26 27 26 25 21 16 15 14 13 13 16 18 18 20 21 25 25 26 29 29
22 29 22 21 24 26 27 27 27 23 21 21 22 26 29 32 40 43 44 48 43 38 29 29 27 29 28 22 17 16 17 14 17 19 19 20 24 24 25 28 30 31 31
23 28 17 16 23 26 27 24 24 20 18 19 19 20 30 38 41 45 50 57 53 40 36 38 29 30 27 22 19 19 20 22 23 23 23 22 28 28 30 33 32 31 33
21 27 21 17 22 24 26 25 23 22 21 20 19 22 26 28 32 41 49 46 47 26 27 37 31 27 25 23 23 22 24 27 30 28 28 28 30 30 35 33 32 30 33
25 26 23 22 25 22 24 23 24 28 28 28 29 30 31 29 27 30 31 37 33 33 20 34 28 30 25 24 28 27 28 31 35 35 30 31 32 34 36 34 33 30 34
28 29 23 28 23 25 25 28 30 30 30 29 29 30 32 32 31 32 31 29 25 32 20 30 27 26 28 28 32 32 31 31 35 35 30 34 33 35 37 35 33 32 36
30 31 27 27 27 26 27 26 25 21 15 11 12 16 21 24 24 28 28 23 20 21 21 30 32 33 32 35 39 30 36 36 32 34 30 37 36 36 35 35 37 37 36
29 34 25 29 29 29 28 25 20 15 10 9 17 24 24 22 25 28 29 24 22 22 29 35 32 30 33 37 35 39 40 39 35 31 34 38 38 35 35 36 36 37 34
30 33 28 32 30 27 22 24 20 15 18 25 26 26 26 27 27 27 27 21 22 23 29 31 31 36 36 38 39 41 41 41 33 28 33 36 36 36 35 34 36 35 30
24 26 29 30 26 23 24 22 16 23 27 34 39 30 26 23 23 24 19 16 17 23 27 29 33 37 35 27 35 43 45 32 29 28 32 34 35 34 34 34 33 28 25
30 29 21 18 15 11 16 21 28 32 38 35 33 33 27 22 18 10 13 16 20 23 29 33 31 30 30 33 32 28 29 26 27 31 33 33 33 33 33 31 28 24 27
27 24 17 16 20 26 31 33 32 40 34 28 25 20 20 19 18 14 8 9 15 25 32 24 19 28 35 31 25 27 26 27 29 31 32 30 30 31 30 29 24 25 28
18 21 22 25 30 33 31 29 30 25 28 19 16 16 16 13 17 12 8 9 11 14 22 22 22 25 25 23 24 24 24 27 30 31 29 27 27 27 26 21 20 24 27
22 25 29 25 24 26 23 25 25 19 15 9 7 6 8 10 11 9 11 11 13 19 23 26 28 25 20 21 23 24 25 29 29 26 25 24 21 22 15 16 19 23 28

GFSMW_700_spd_006.txt.gz
Wind_Speed
19 19 20 19 19 18 18 20 18 15 15 16 14 13 13 14 14 14 14 15 14 14 15 15 14 15 17 19 19 16 16 16 15 14 13 11 9 7 7 7 6 5 8
28 24 23 22 21 20 18 19 17 18 17 18 16 16 16 16 15 14 12 12 12 11 10 8 9 9 11 12 13 12 13 13 13 13 11 6 13 8 8 8 7 5 7
31 29 27 26 24 23 21 19 19 18 19 17 18 17 16 14 12 11 10 9 8 7 4 2 0 2 5 8 9 10 9 10 11 9 9 8 4 12 12 10 9 9 10
32 33 32 30 28 24 23 21 22 21 20 19 19 17 16 15 13 12 12 11 10 8 6 5 5 7 9 11 12 11 10 10 11 10 8 10 11 8 4 11 14 13 13
28 32 34 33 29 27 26 22 24 22 20 20 20 20 19 18 16 14 11 9 9 7 7 8 10 11 12 13 14 13 12 11 11 10 10 9 9 9 9 7 9 16 18
24 24 25 26 26 26 25 25 25 21 20 20 20 22 21 19 18 15 10 7 5 3 5 8 10 13 14 15 15 14 12 11 9 9 10 11 10 9 9 11 12 15 17
28 25 24 25 27 28 27 26 24 21 20 20 20 20 19 19 18 14 11 8 4 2 4 7 9 12 15 17 16 14 12 11 11 11 11 11 13 14 15 15 13 12 14
20 29 29 27 28 27 27 26 23 22 20 20 21 21 20 20 19 17 14 10 8 8 8 7 9 12 14 16 18 15 14 13 12 11 11 11 13 14 14 15 16 16 13
19 26 31 31 31 30 27 24 24 23 22 22 21 21 22 22 23 21 17 14 13 12 10 12 14 15 15 16 18 17 15 15 14 14 13 13 14 15 15 16 17 19 21
22 20 25 30 33 32 29 27 25 25 26 27 25 24 23 26 27 24 22 19 18 17 14 12 18 22 21 18 20 19 17 15 16 16 15 14 15 15 14 17 19 22 22
19 22 23 25 34 33 30 26 26 24 26 28 25 28 28 29 30 30 24 25 23 24 18 18 25 28 25 21 21 21 18 17 16 15 15 16 16 17 17 17 20 22 23
19 20 23 30 28 33 36 31 27 29 26 21 21 23 26 31 33 35 31 33 30 32 24 23 25 22 25 27 23 23 21 18 16 15 14 17 19 18 17 20 22 23 26
24 23 26 33 27 30 32 30 31 29 26 24 25 24 25 26 31 38 41 39 38 40 46 36 37 42 32 31 25 24 24 21 17 15 16 17 20 19 19 23 24 26 30
20 20 28 32 30 31 30 31 31 31 27 28 26 26 26 30 31 34 38 44 51 54 56 48 50 39 35 29 25 26 25 23 20 18 19 20 21 21 25 27 27 32 34
23 22 32 32 28 26 30 32 32 31 27 28 26 25 29 29 31 34 35 42 51 54 56 53 39 40 38 36 29 27 27 24 24 23 22 24 26 29 28 32 31 32 33
27 23 35 30 23 21 23 26 26 27 27 29 29 28 27 25 27 28 33 39 41 41 40 31 34 37 37 37 32 29 29 28 27 27 26 28 29 31 29 32 33 33 36
25 25 32 28 25 23 25 28 29 30 31 31 30 27 27 27 29 30 30 30 30 33 33 31 34 32 30 34 30 30 31 32 32 31 32 32 31 32 31 31 33 35 36
30 28 31 33 27 29 30 31 35 34 33 33 31 29 29 24 24 24 23 24 28 30 27 26 29 29 29 34 33 36 34 34 33 32 34 39 38 37 31 32 37 37 35
31 31 32 32 34 33 32 32 33 33 34 34 33 28 19 13 13 17 21 20 26 30 27 28 26 26 31 34 31 33 33 34 31 35 42 40 44 45 30 33 37 36 36
32 28 31 37 35 31 33 32 34 34 36 35 32 24 16 15 18 23 25 25 26 27 23 23 26 27 29 33 28 29 31 32 35 40 42 42 35 35 30 34 36 37 35
34 32 30 32 34 33 33 34 34 33 32 30 27 23 22 26 31 33 38 24 23 21 19 21 25 28 30 31 28 35 34 35 41 43 44 42 30 35 35 35 36 35 35
31 33 34 29 31 34 32 32 31 28 25 23 21 25 29 30 31 29 30 25 17 15 17 19 23 24 27 31 32 31 34 38 38 37 36 35 33 34 33 35 34 34 34
29 28 28 31 34 34 33 30 26 22 22 25 31 32 30 24 23 24 23 22 16 16 19 21 24 25 27 32 30 34 36 35 34 32 30 32 34 32 35 32 33 34 33
33 33 33 33 33 33 33 29 23 24 28 31 29 25 23 20 20 21 20 17 15 18 18 19 26 26 27 31 28 30 32 30 30 30 31 32 33 33 32 33 32 32 27
29 25 25 25 25 28 26 25 27 30 30 28 27 24 24 20 19 20 20 19 19 16 16 16 20 25 21 22 21 24 25 26 27 29 30 32 30 29 30 29 30 24 19
21 17 19 21 23 24 26 29 29 25 26 25 22 23 22 18 18 17 16 17 19 19 17 15 18 19 19 16 15 18 22 23 25 27 30 30 29 27 26 25 24 24 25

GFSMW_700_spd_009.txt.gz
Wind_Speed
22 22 20 22 23 23 22 21 21 18 17 14 16 17 16 16 15 14 17 12 13 14 15 16 17 15 16 16 19 20 20 17 17 10 6 10 9 8 1 4 4 6 9
26 26 25 23 22 21 19 18 18 19 18 18 18 19 14 11 16 16 16 14 13 14 13 13 14 12 13 14 14 14 15 14 13 7 5 2 10 10 7 9 5 7 8
28 30 29 27 25 24 21 19 17 18 20 19 20 21 19 17 16 15 14 12 10 9 9 7 5 4 7 10 10 11 10 10 13 6 4 3 3 6 14 14 8 7 10
29 30 30 31 29 27 23 21 20 19 21 22 23 19 18 18 14 12 9 8 7 5 3 3 1 3 6 10 13 14 13 10 9 13 7 7 9 11 2 10 21 18 10
28 30 31 29 30 29 27 24 23 22 23 24 22 21 21 17 13 12 13 10 9 7 5 3 1 4 7 9 12 13 13 11 9 9 9 8 7 7 9 6 7 9 16
28 29 29 28 28 30 29 28 26 24 23 23 23 21 20 18 15 15 16 13 11 8 4 1 3 6 9 11 11 11 12 13 12 10 10 8 5 4 6 8 9 10 13
28 30 28 25 24 27 29 29 26 24 23 22 21 20 19 18 16 18 17 15 12 9 7 6 6 9 12 14 15 13 10 11 11 10 12 10 9 9 9 8 7 8 8
27 31 24 23 23 23 25 26 25 25 24 22 20 20 20 19 19 18 19 18 16 14 11 8 8 10 12 15 19 21 16 12 12 12 10 11 13 11 10 9 11 12 10
26 30 24 26 25 24 23 21 24 26 25 23 22 21 22 20 20 22 21 19 18 16 13 11 13 16 17 17 18 22 22 17 13 13 11 10 11 11 10 10 12 14 14
25 30 32 29 26 24 25 24 24 25 27 25 25 24 21 21 23 23 22 22 19 18 24 19 22 27 25 33 32 24 26 21 17 14 13 12 11 12 13 13 11 11 13
23 28 33 28 24 24 27 26 29 28 29 28 28 27 24 22 23 25 26 25 27 25 29 26 29 29 29 27 40 29 23 27 21 16 16 13 12 14 15 13 12 17 15
23 24 29 32 29 25 26 30 31 30 27 28 28 27 28 29 27 28 30 31 33 35 32 32 36 36 37 43 41 29 27 28 26 19 18 17 16 15 14 13 19 22 24
16 19 23 32 34 32 27 28 31 30 28 28 25 25 26 26 28 28 32 33 37 40 40 43 40 46 46 48 49 45 32 31 26 21 18 18 17 15 13 14 18 22 25
20 18 23 25 36 36 28 28 28 32 29 28 29 26 25 26 28 30 30 33 35 39 41 44 46 49 49 51 53 51 33 31 27 23 22 20 22 24 22 20 22 25 26
25 22 18 21 24 36 29 26 29 32 33 31 30 28 27 29 31 31 29 31 34 35 38 42 41 43 48 50 50 47 36 35 27 25 25 23 24 26 27 28 30 25 26
23 30 28 23 26 31 30 28 30 34 35 35 31 29 30 31 30 30 30 31 32 35 36 39 38 39 36 39 36 43 35 34 31 29 29 27 26 29 32 32 34 35 30
28 31 30 29 27 35 33 33 35 35 33 33 30 31 31 30 31 31 31 30 30 28 26 27 30 35 38 36 35 34 31 36 35 31 29 28 25 27 30 37 43 45 32
33 31 31 31 28 36 33 31 31 32 32 32 32 32 34 33 29 28 27 25 18 16 19 25 32 34 31 37 35 30 32 34 34 31 32 30 26 30 35 40 37 41 40
30 32 34 30 29 37 33 33 31 30 34 36 35 34 33 29 26 21 16 13 15 20 27 30 38 30 29 32 29 28 31 33 34 33 32 29 32 33 38 44 36 33 33
29 32 32 32 33 41 34 35 34 32 33 35 35 31 28 25 24 19 14 18 21 24 30 30 31 27 28 28 26 25 30 31 33 30 28 29 33 37 36 35 32 36 34
35 35 34 34 31 44 39 36 35 34 35 35 35 32 28 24 21 22 23 24 24 27 26 27 25 23 26 27 26 26 27 25 25 28 30 37 33 31 28 30 32 34 34
39 36 35 33 30 38 36 33 35 36 36 35 31 30 25 23 25 26 28 28 28 26 24 22 19 22 22 25 26 26 26 27 25 30 33 36 33 28 31 33 33 34 33
36 33 35 37 32 32 33 35 36 35 33 32 29 28 24 25 26 27 29 28 25 23 21 21 22 23 23 26 23 26 22 22 26 32 35 28 28 32 34 34 35 34 30
32 34 34 36 37 39 37 34 31 30 28 26 25 23 24 26 28 27 25 22 22 22 21 23 25 23 24 24 24 24 24 26 26 28 26 26 31 34 36 38 35 29 27
31 32 35 36 36 34 31 30 27 25 24 23 22 22 21 22 22 21 19 20 21 21 24 24 22 22 23 23 23 25 21 20 20 21 26 28 31 33 34 33 33 32 28
36 36 34 31 28 24 22 20 19 19 20 19 19 20 19 19 18 18 18 19 19 19 20 22 21 19 16 17 15 12 12 15 18 22 24 27 30 21 22 22 24 29 30

GFSMW_700_spd_015.txt.gz
Wind_Speed
22 28 26 27 31 25 19 16 16 12 12 12 12 11 12 12 10 9 11 10 11 10 8 9 8 11 9 9 11 13 12 12 10 7 6 2 5 8 7 13 14 9 10
23 26 28 26 26 23 19 18 18 18 14 12 11 11 11 12 11 12 14 12 10 9 8 8 6 5 6 7 10 12 15 15 11 6 1 2 2 7 5 6 10 10 5
27 28 29 30 27 26 22 19 17 19 16 12 13 14 16 14 12 15 8 9 6 7 5 3 1 3 6 9 11 13 14 16 15 8 3 2 3 6 8 5 9 7 8
30 29 30 30 32 30 25 22 19 19 17 17 13 16 17 14 12 9 7 7 6 5 3 3 3 4 6 9 9 11 14 16 16 14 8 4 7 9 6 8 7 10 10
25 22 21 18 19 20 23 25 22 22 20 20 17 16 17 15 14 11 9 6 7 6 7 4 2 3 3 6 9 15 20 25 23 17 15 10 6 13 12 12 5 10 12
28 25 17 15 18 17 19 22 26 25 23 21 19 16 15 14 14 12 11 11 11 11 7 5 4 1 3 6 7 11 19 26 23 17 14 14 11 7 13 17 18 16 15
33 30 29 20 17 15 11 13 20 25 24 22 20 17 14 15 13 12 12 12 12 9 9 8 6 5 2 4 10 16 17 25 23 11 12 13 12 12 9 7 11 16 16
43 38 27 18 16 19 18 12 10 17 22 22 21 19 15 15 13 13 12 11 12 11 9 10 10 9 7 6 8 14 20 24 29 19 23 21 15 12 13 12 8 6 8
47 47 41 25 20 21 20 17 13 13 17 20 19 19 17 16 13 16 15 13 13 11 11 12 13 13 12 13 15 20 21 26 29 28 25 24 25 21 15 14 10 9 7
43 47 48 20 17 16 17 19 17 16 15 18 19 21 18 18 16 19 18 15 14 14 11 13 16 16 15 17 19 23 25 28 29 27 27 25 27 22 18 16 13 12 10
28 47 47 29 17 16 19 19 21 19 21 20 19 23 22 22 21 19 18 15 13 16 13 15 16 19 20 22 23 25 29 31 32 29 26 26 27 20 18 18 15 13 12
26 43 46 33 22 18 20 20 22 23 22 23 22 23 26 25 23 20 16 16 16 16 18 18 20 21 24 27 28 29 31 33 32 31 28 27 28 20 20 18 14 17 14
28 33 37 36 26 18 21 22 24 25 23 25 23 25 28 28 25 20 18 19 17 20 20 21 22 22 26 29 30 33 34 34 34 32 28 29 27 19 21 21 22 13 13
31 31 36 38 26 26 23 16 21 25 24 25 25 25 26 25 25 23 22 22 20 22 24 25 27 27 28 31 31 33 34 38 38 35 32 30 26 20 20 23 20 19 21
26 26 30 36 31 28 22 20 21 20 26 25 25 25 22 24 24 24 25 25 26 24 25 27 29 29 30 32 32 31 33 34 38 37 35 33 29 23 21 24 22 22 25
27 34 30 35 34 29 23 23 19 21 21 28 26 25 25 26 26 26 25 24 26 27 27 28 30 30 32 29 26 29 32 35 36 38 35 32 31 28 20 24 24 24 22
28 26 31 31 31 30 27 22 18 17 21 28 28 27 28 28 27 27 27 25 24 26 29 30 31 30 29 25 25 27 32 37 37 34 32 31 26 27 22 26 24 27 21
25 36 36 27 28 28 26 22 23 24 21 31 30 30 31 31 29 29 29 28 28 28 29 29 27 27 23 21 24 29 35 36 36 33 31 27 23 24 22 27 32 27 20
31 32 29 37 33 32 26 25 25 25 26 31 33 31 31 32 32 32 31 28 29 28 27 26 25 20 21 22 26 33 36 37 31 27 27 25 24 20 23 28 26 19 23
26 35 37 33 47 39 38 34 33 29 28 30 36 33 31 32 32 33 31 29 26 24 29 24 20 21 23 27 31 31 29 27 23 23 25 22 26 25 27 24 19 23 24
31 29 33 41 27 36 35 36 33 30 29 31 37 36 36 34 36 37 32 27 29 29 24 21 20 22 27 30 29 27 26 22 22 20 19 20 20 24 18 18 19 22 22
29 33 35 42 43 32 35 38 37 32 32 34 36 37 39 40 41 36 29 30 30 23 20 19 23 26 27 28 26 25 22 21 22 22 16 18 18 19 18 18 21 22 26
29 28 33 38 44 34 32 32 29 20 33 38 40 41 42 40 38 37 33 31 23 19 20 25 25 28 27 24 23 22 22 20 20 21 17 16 19 18 21 22 23 26 28
34 29 24 34 39 43 36 35 31 28 30 40 42 46 41 38 36 35 29 22 20 20 22 24 26 25 23 21 20 22 20 20 19 17 17 19 20 23 24 23 26 27 25
36 35 37 27 29 32 35 33 33 30 34 37 40 40 36 33 29 27 22 20 19 20 22 23 23 19 18 19 18 17 19 21 17 14 14 17 19 20 23 25 25 20 25
32 37 36 37 32 24 23 26 33 32 31 30 29 28 27 26 23 21 18 18 19 20 21 19 18 17 16 16 16 17 17 14 12 12 14 16 19 23 22 21 21 24 26

GFSMW_700_spd_021.txt.gz
Wind_Speed
9 17 17 19 21 21 21 20 18 16 16 15 14 13 11 8 5 5 5 7 10 11 9 6 4 1 7 9 12 13 14 14 14 11 6 2 1 1 2 2 5 4 2
9 18 20 21 23 22 22 21 19 18 16 15 13 12 11 10 10 10 9 12 13 13 12 7 1 8 8 12 12 16 17 17 12 9 7 6 3 5 3 6 6 6 4
15 7 18 24 24 24 24 21 18 18 17 16 16 14 15 13 11 11 9 9 14 13 7 6 10 9 10 11 11 12 16 19 7 6 7 8 9 8 8 8 4 7 5
24 20 18 17 24 26 25 23 22 22 20 19 18 17 16 14 10 10 11 10 11 11 10 12 12 11 10 9 9 8 17 19 13 10 11 10 9 8 8 9 9 10 9
30 22 19 15 8 21 24 24 23 23 23 21 20 19 18 16 16 16 13 11 9 12 15 16 15 13 10 8 5 7 13 20 18 14 12 11 10 10 10 9 9 10 12
31 22 17 22 18 12 17 26 26 24 24 23 22 21 19 18 19 18 15 12 10 15 18 19 17 14 11 8 5 6 11 14 19 18 16 12 11 11 9 9 11 12 13
31 28 24 29 23 18 18 22 27 29 28 26 25 23 21 20 20 19 17 15 13 18 20 21 18 14 11 8 5 4 7 10 15 17 17 17 14 14 13 8 9 11 12
29 26 26 23 20 18 19 21 25 25 24 23 26 25 24 21 22 21 18 17 16 20 22 22 19 15 12 10 9 8 9 11 14 16 18 17 18 16 12 10 11 11 11
36 28 31 30 25 25 25 21 21 23 23 22 21 27 26 24 23 21 20 18 20 24 25 23 20 17 15 12 11 12 12 13 15 18 18 18 18 18 16 10 11 12 10
36 34 32 32 28 31 29 25 21 22 20 20 21 23 28 26 24 25 22 20 23 27 27 24 20 17 14 14 13 12 13 15 18 20 22 22 20 17 16 14 12 12 12
36 36 36 27 27 30 34 30 28 23 23 24 22 22 26 28 27 26 22 22 25 28 28 24 20 17 15 16 16 16 16 17 19 21 23 26 24 20 18 15 16 12 14
30 45 37 30 26 29 32 33 31 30 26 24 24 25 24 27 29 28 23 25 28 30 27 25 23 20 18 18 18 18 20 20 21 22 24 25 28 24 21 18 18 14 16
25 34 48 41 30 26 32 28 29 29 30 28 28 29 28 26 29 29 25 26 30 31 29 26 24 22 21 20 20 20 21 22 23 25 26 24 27 28 23 21 19 20 19
19 27 43 46 35 28 33 30 29 29 31 31 32 34 32 28 26 30 29 26 30 31 29 27 23 22 21 21 21 21 21 23 24 25 25 25 25 25 24 24 23 22 23
18 26 29 39 39 39 34 38 32 31 32 32 36 37 34 31 29 33 33 31 30 29 29 28 26 24 23 21 21 21 22 24 24 24 25 26 27 24 22 25 24 24 24
27 22 30 43 40 36 34 42 42 35 34 35 35 35 36 35 34 32 36 36 32 31 30 30 28 26 25 23 22 23 25 27 24 23 28 30 28 24 20 24 26 28 26
25 29 34 42 43 41 40 37 45 39 36 34 37 34 34 36 37 37 35 39 38 35 35 33 31 29 27 25 22 24 26 29 26 26 30 31 29 27 24 25 28 27 28
28 33 37 37 36 32 35 32 39 42 38 38 36 33 32 35 39 41 38 39 41 39 37 35 32 30 27 24 24 24 24 25 28 29 33 32 31 30 26 24 24 25 27
29 23 31 44 40 40 32 28 35 46 42 42 36 35 31 33 37 41 42 40 42 41 39 36 34 31 26 25 24 23 25 28 28 30 34 32 31 28 24 22 23 26 24
32 33 25 32 37 43 38 36 38 42 45 39 38 35 34 35 38 38 43 42 43 42 40 38 36 31 30 27 22 27 29 27 32 36 32 30 26 23 20 21 23 22 24
28 29 31 27 30 31 33 34 38 44 43 34 35 35 37 35 37 39 39 46 44 44 43 40 36 34 31 24 18 30 31 31 34 33 30 25 22 21 20 21 22 22 25
29 28 28 27 31 33 34 33 38 35 37 38 40 40 36 37 38 39 40 38 46 46 46 42 35 34 29 18 23 37 32 34 35 32 26 22 20 18 19 21 20 21 20
26 25 26 26 27 30 31 35 36 40 47 45 47 45 39 45 40 39 42 43 40 45 46 44 40 35 28 23 25 33 33 34 31 25 21 20 18 19 21 22 20 17 19
20 23 27 30 31 32 35 37 38 40 44 46 49 52 50 47 51 43 45 47 48 43 43 43 40 31 26 21 24 34 33 30 23 19 17 18 19 19 20 20 18 19 19
17 19 20 23 28 32 38 44 44 48 51 49 54 57 53 56 53 51 50 50 48 45 44 40 37 27 23 23 34 33 27 21 19 18 17 18 17 17 17 15 14 16 19
12 14 18 21 26 29 33 37 41 49 51 54 60 59 60 58 54 58 50 42 43 44 40 40 25 18 22 29 30 24 20 17 16 15 15 14 14 14 13 13 16 19 21

GFSMW_700_spd_024.txt.gz
Wind_Speed
6 14 18 25 26 25 24 22 21 20 20 18 16 12 10 10 10 10 9 9 10 9 7 2 1 3 8 9 10 11 11 13 9 9 7 5 5 4 5 5 3 4 1
9 16 19 26 28 25 22 22 21 21 19 17 14 12 9 11 12 12 12 10 11 10 8 5 4 9 10 10 10 9 10 10 6 9 11 9 9 7 4 6 5 7 5
15 6 20 24 27 27 25 23 21 20 19 17 16 15 14 13 12 12 10 8 9 10 9 8 14 14 12 10 7 11 11 8 8 10 12 11 9 9 7 6 6 6 8
25 20 13 15 28 29 27 25 23 24 23 21 18 17 14 13 9 7 10 10 10 10 12 15 18 16 13 10 6 12 16 15 13 12 12 12 11 9 8 7 8 8 7
26 25 22 13 10 27 29 28 27 27 25 22 19 18 17 14 14 14 13 12 9 12 16 21 20 17 14 11 7 9 16 17 16 16 14 13 12 11 9 7 7 8 9
25 25 23 22 20 17 29 31 31 29 27 25 22 20 17 15 16 17 16 13 11 13 21 23 21 19 16 14 9 8 7 9 13 15 14 14 13 12 12 7 6 7 9
19 22 25 25 21 25 21 30 33 31 30 27 26 23 20 18 17 17 17 16 13 16 23 24 21 19 18 15 10 4 1 4 8 12 14 13 14 13 13 8 6 7 8
29 23 22 23 22 20 22 23 25 32 32 30 27 25 23 21 19 19 17 17 16 18 25 26 24 21 18 15 12 8 5 5 8 11 12 14 15 17 18 13 9 8 7
27 28 27 26 25 23 23 22 21 20 24 27 28 28 25 24 22 20 19 18 19 23 29 30 27 24 20 17 14 12 11 9 9 11 13 13 13 14 15 16 17 12 10
24 25 28 30 28 28 26 24 21 21 18 18 22 23 21 22 24 23 23 20 21 26 31 33 29 26 22 19 18 15 13 11 12 13 15 16 17 15 13 13 13 15 13
24 25 28 29 29 31 33 30 26 24 23 22 22 22 23 21 25 27 25 22 23 29 33 33 31 28 23 21 19 17 15 13 14 15 15 16 18 20 17 15 13 13 17
24 20 20 23 33 35 36 32 31 29 26 23 22 24 22 24 25 27 28 25 27 30 35 35 32 28 24 21 20 18 16 16 16 17 18 18 18 18 18 17 16 16 16
28 27 30 26 30 35 35 32 32 33 29 29 25 25 26 28 27 25 29 28 30 32 36 37 34 30 25 22 21 21 19 18 17 18 20 21 21 20 18 19 19 19 20
32 30 30 26 23 32 32 27 25 23 26 33 31 31 30 31 28 24 28 30 30 33 36 37 35 31 27 25 25 22 20 20 20 20 21 22 24 22 23 23 21 22 23
33 27 26 21 22 31 36 30 29 26 25 29 34 35 34 32 30 29 28 32 32 32 37 39 37 33 30 26 24 22 23 23 23 22 22 24 23 24 24 24 26 26 26
24 26 22 25 25 31 35 31 29 30 31 30 31 34 34 34 34 34 30 35 36 33 37 40 38 35 32 28 25 25 25 24 25 23 21 26 28 24 24 25 27 28 29
32 33 24 21 25 29 33 33 28 28 31 34 32 32 34 34 37 38 35 36 38 39 36 38 39 36 34 31 27 27 27 28 27 25 25 26 28 30 27 27 27 30 31
26 34 26 26 28 28 27 29 29 29 35 40 35 37 35 36 39 42 41 39 40 42 41 39 39 38 36 33 30 29 30 30 28 26 26 28 33 30 28 30 32 30 29
23 22 28 30 32 33 35 30 34 34 33 40 42 41 38 36 37 43 42 41 43 43 44 44 42 40 37 35 33 31 33 28 22 25 30 30 31 29 30 32 31 28 26
24 23 25 24 24 31 32 36 37 35 37 36 35 40 40 38 40 39 41 43 44 46 45 45 45 43 42 39 36 37 34 31 27 29 29 32 32 31 32 31 28 28 24
27 25 24 21 25 22 30 35 38 37 32 28 33 36 45 42 37 35 40 42 42 46 49 46 46 47 47 43 42 39 35 29 27 31 33 36 38 35 32 29 28 26 24
26 24 25 24 25 25 23 25 32 35 40 47 39 41 40 45 43 42 39 42 41 42 46 51 50 50 49 47 45 39 34 30 29 30 31 40 40 36 31 29 27 24 22
27 28 28 24 25 25 26 27 28 30 32 31 32 33 38 36 41 42 39 37 40 47 46 45 53 53 53 53 48 42 36 35 33 31 31 37 37 33 30 28 25 21 19
20 21 22 23 25 25 26 26 28 30 33 34 36 37 36 39 52 51 48 44 40 44 54 51 50 53 56 52 47 42 33 32 32 29 29 37 36 32 27 25 20 16 18
25 25 25 25 27 30 31 31 32 32 35 35 37 40 43 44 47 47 53 44 48 45 49 45 49 50 48 52 48 38 24 28 27 27 30 37 31 27 23 19 15 16 17
23 24 26 25 24 26 28 33 38 40 41 43 45 46 49 51 51 50 47 47 50 55 57 51 50 51 32 22 40 36 20 27 26 26 34 30 27 22 19 16 15 17 18

GFSMW_700_spd_027.txt.gz
Wind_Speed
10 18 22 26 27 27 28 28 26 24 23 20 19 17 15 15 12 11 11 11 11 10 8 4 2 5 6 5 4 5 8 9 7 7 8 9 8 5 5 3 4 3 2
20 21 23 23 28 28 27 27 25 22 20 19 18 16 14 13 12 12 12 12 11 10 9 6 5 10 9 7 5 9 8 3 7 9 11 11 11 8 6 6 6 6 5
25 19 24 21 25 30 29 27 24 21 20 20 20 19 18 16 15 13 13 12 11 12 10 8 11 14 11 8 8 10 9 10 10 11 11 11 10 10 9 8 7 7 7
27 23 21 24 22 27 27 26 25 24 23 23 21 18 15 12 9 8 11 14 13 14 14 11 17 17 14 10 9 12 11 10 11 11 11 11 10 8 6 5 5 5 5
29 30 19 14 12 24 27 26 26 26 25 25 22 20 17 14 14 15 15 16 15 14 15 17 21 20 17 12 9 12 13 14 14 13 13 13 12 11 6 3 4 5 5
28 29 26 24 21 25 29 29 30 28 27 26 24 23 20 17 16 16 16 14 13 12 16 23 23 22 19 16 12 9 8 9 11 12 13 14 14 14 13 8 4 4 5
25 30 30 27 28 26 26 32 33 32 30 29 28 25 22 20 17 16 15 15 13 12 19 26 25 22 20 20 15 11 5 3 5 7 9 11 12 12 12 12 9 8 7
20 23 26 26 25 25 25 25 36 35 34 32 30 27 24 21 19 19 17 15 15 14 20 27 27 26 24 21 18 13 9 5 3 3 6 8 10 11 10 9 9 9 9
16 18 18 25 28 27 29 30 26 26 35 33 31 29 26 25 22 21 20 17 16 19 24 29 28 28 27 23 19 16 13 10 8 6 7 8 8 10 10 10 9 9 8
18 17 16 18 24 29 28 27 29 29 24 26 31 32 30 27 25 24 23 20 17 20 26 33 33 31 28 25 21 18 15 12 10 9 9 11 12 12 10 9 10 10 12
21 13 13 16 23 26 29 27 27 27 28 28 24 20 21 21 22 24 24 24 21 22 26 35 36 34 31 27 24 21 18 14 13 12 13 14 14 14 13 11 10 11 12
27 18 17 16 23 27 31 32 31 29 26 25 26 23 22 22 24 24 23 25 24 24 27 33 40 37 33 31 27 23 20 17 17 17 17 18 17 16 15 15 14 14 14
34 29 25 22 18 21 30 33 34 35 31 29 27 28 28 27 27 26 24 25 27 28 30 34 40 39 36 34 29 25 23 21 20 21 20 21 21 19 17 18 18 19 20
23 25 25 22 23 23 25 30 36 34 33 33 32 31 31 30 28 25 25 25 27 29 32 34 39 40 38 36 32 28 25 23 23 23 22 23 24 25 23 19 20 22 24
27 30 29 24 22 24 24 27 30 36 36 39 36 35 32 31 32 30 28 27 28 29 33 36 39 43 42 39 35 31 27 26 26 25 26 27 27 28 24 23 22 25 25
16 20 26 23 24 19 23 31 31 32 33 31 29 28 35 36 35 34 32 30 30 29 34 37 39 45 45 41 38 35 31 29 29 29 28 30 30 32 27 27 25 25 26
27 24 23 27 24 20 25 32 35 36 33 29 25 27 30 32 33 33 36 34 33 32 35 38 38 43 45 43 41 37 35 33 32 32 32 32 32 33 32 29 25 27 26
20 18 18 25 28 23 24 28 38 40 37 36 32 27 25 28 30 33 34 34 35 36 37 39 39 39 46 46 44 41 39 38 37 36 33 33 34 31 33 31 26 28 26
22 23 21 20 30 27 24 28 30 38 40 34 34 35 33 33 34 33 34 36 39 37 40 41 43 41 43 48 47 45 44 43 41 40 35 32 33 27 34 29 25 27 26
25 27 24 23 23 32 30 31 32 35 33 30 28 30 30 33 37 38 36 35 38 41 39 42 45 45 44 45 46 47 47 48 44 43 36 34 33 29 30 26 26 27 25
24 29 27 28 25 29 31 34 34 37 36 39 38 36 35 34 35 40 41 40 37 39 40 40 43 48 50 50 49 50 51 50 46 45 37 36 36 31 28 26 25 24 25
21 29 27 28 26 22 27 26 31 36 40 40 39 39 38 35 37 38 32 51 48 41 41 40 40 43 50 50 52 53 51 51 49 43 39 40 36 32 28 27 25 24 24
21 28 29 28 26 24 27 29 28 24 29 37 42 42 44 40 41 40 41 37 39 43 35 42 45 45 44 47 51 52 50 53 51 45 44 43 34 29 31 30 26 23 24
27 22 29 32 30 30 24 30 30 31 31 30 31 32 34 40 41 44 41 37 34 42 44 51 52 43 39 44 48 51 57 55 55 51 45 41 31 36 37 29 24 23 24
33 26 24 25 26 28 28 28 27 27 27 28 30 32 34 37 41 45 44 37 44 45 45 52 50 45 49 52 49 50 57 54 53 48 46 36 33 35 31 25 24 25 24
35 32 28 27 27 27 28 29 30 30 32 33 35 38 40 43 45 47 48 48 45 44 48 49 53 63 53 56 57 54 52 58 45 36 42 32 30 34 28 25 25 25 27

GFSMW_700_spd_030.txt.gz
Wind_Speed
10 18 23 26 27 29 30 30 29 28 27 25 21 19 16 15 13 11 12 11 11 11 9 5 2 3 3 1 3 5 4 4 6 7 8 6 5 5 4 5 4 2 4
23 18 23 29 29 29 30 31 29 28 27 24 21 19 17 16 15 14 14 12 11 11 11 7 5 6 5 2 5 5 4 6 8 10 8 5 6 4 4 4 4 2 1
22 23 21 25 29 29 30 30 29 28 27 25 23 21 19 19 18 17 14 12 10 11 11 10 9 11 8 3 5 8 9 9 8 8 10 7 3 4 4 3 3 3 4
26 25 24 25 24 24 29 29 29 29 27 25 25 22 19 16 15 14 14 13 13 12 13 13 13 15 11 6 5 7 8 9 9 9 10 9 6 6 3 1 1 2 0
23 26 24 18 22 22 29 30 30 30 28 27 24 22 20 17 17 17 16 16 16 14 14 16 18 19 16 11 9 11 12 12 11 11 12 12 11 9 4 3 6 4 3
26 27 27 24 21 25 28 32 32 29 28 26 26 24 21 19 18 16 15 14 13 14 14 17 23 23 19 15 12 11 10 10 9 9 10 10 10 10 10 6 1 4 9
24 22 27 30 27 25 28 30 31 30 29 28 28 27 23 21 19 18 18 17 15 14 13 18 24 24 23 19 17 13 9 6 5 4 6 7 7 7 7 6 6 5 6
23 22 23 29 26 25 25 25 30 31 31 30 26 26 24 23 22 21 19 18 17 17 17 20 26 26 26 24 20 16 12 8 5 2 1 2 4 5 5 5 5 8 10
26 20 19 23 27 26 26 26 23 27 30 31 28 26 26 26 25 24 21 20 18 19 20 22 27 29 28 28 24 21 16 12 9 8 7 6 6 6 7 6 6 6 6
26 19 16 19 20 24 28 27 25 24 21 29 31 29 29 27 27 26 26 23 20 20 22 24 30 31 32 30 26 24 20 16 14 12 11 11 11 10 9 8 8 9 9
27 20 14 17 18 23 28 29 31 30 30 26 23 30 33 31 30 30 27 26 24 22 23 25 32 34 33 33 30 27 24 20 18 15 13 14 15 16 14 13 12 12 12
26 25 19 19 15 21 26 28 31 29 29 29 28 23 22 29 34 34 30 28 28 25 24 26 32 37 36 34 32 30 28 23 20 18 17 17 19 18 18 16 15 16 15
33 34 28 25 16 20 25 29 31 31 31 30 30 31 29 27 25 24 24 24 26 27 28 28 31 37 40 39 35 32 31 27 24 22 21 21 23 22 22 18 17 18 18
22 31 35 33 24 19 18 26 32 34 35 34 34 33 30 29 27 25 26 26 26 26 28 31 31 33 41 42 39 36 34 31 28 26 24 24 25 25 25 24 21 21 21
14 16 19 31 28 23 20 21 25 38 39 41 39 38 33 33 33 33 31 31 31 30 26 29 33 34 37 42 42 39 37 35 32 30 28 27 27 26 28 29 28 27 24
15 12 20 27 26 22 22 21 22 29 43 43 37 38 37 37 36 36 36 36 35 32 30 27 30 35 37 37 41 42 40 37 36 34 32 31 31 30 31 31 33 33 28
23 19 18 20 26 26 27 26 24 21 35 45 41 40 42 41 40 39 38 39 37 35 32 32 29 31 34 36 40 42 43 41 40 38 37 36 36 32 33 34 35 37 30
27 26 22 22 24 29 30 28 28 27 34 40 40 38 38 36 33 35 37 39 42 39 36 34 35 33 32 35 37 45 46 46 45 44 42 40 39 37 36 35 37 37 32
21 27 25 24 25 27 31 32 30 31 31 40 40 38 36 34 33 33 35 35 41 43 42 42 38 38 36 36 37 42 48 50 50 47 47 46 44 41 38 39 37 37 31
19 18 25 28 26 27 30 32 32 33 33 38 41 40 40 39 35 33 31 30 36 43 46 47 43 39 40 42 43 42 48 53 54 53 51 49 48 45 41 42 40 39 28
24 21 20 28 26 27 30 31 34 31 30 31 41 44 40 38 36 33 33 32 30 32 36 46 49 47 44 41 45 46 46 52 56 56 57 53 51 49 43 44 43 36 30
28 25 21 28 31 27 30 30 32 29 30 34 33 38 39 37 37 37 38 38 40 39 36 39 43 50 48 46 41 46 51 50 55 57 57 58 51 50 49 47 43 34 29
32 30 22 24 31 27 30 26 28 26 27 31 36 39 42 41 41 40 40 43 44 42 40 41 45 52 52 48 45 42 48 55 58 55 60 59 51 50 53 49 43 32 26
30 29 23 22 29 29 27 28 27 28 28 28 30 34 38 40 42 44 44 44 45 43 42 38 36 43 50 53 49 47 54 54 55 59 61 63 51 49 48 45 36 30 28
29 25 22 23 28 32 31 29 29 25 31 32 32 30 30 31 33 34 36 39 37 39 37 36 36 41 48 57 53 53 58 55 58 61 63 54 54 52 54 44 40 34 34
31 29 26 26 25 29 33 34 34 31 29 28 29 30 31 33 35 37 39 41 41 43 43 42 40 41 42 52 49 48 55 57 61 63 58 55 53 46 44 51 51 38 31

GFSMW_700_spd_033.txt.gz
Wind_Speed
21 23 24 25 27 29 29 29 29 28 26 25 22 19 16 15 14 12 11 11 9 10 9 6 5 3 6 3 5 7 5 3 2 8 5 4 5 9 9 5 2 5 4
26 24 22 27 28 28 29 30 30 29 27 25 23 22 18 17 15 14 13 13 11 10 10 10 7 5 6 3 6 4 5 3 2 11 5 6 4 5 3 5 3 6 3
29 23 18 21 28 30 29 30 30 30 28 26 25 23 21 19 17 16 15 13 13 12 11 11 10 8 7 4 1 5 5 4 4 6 14 7 3 1 6 5 5 3 3
29 28 20 18 24 27 28 29 31 30 29 28 27 24 20 19 17 17 16 15 14 12 12 13 12 12 11 6 4 4 5 6 8 8 8 11 11 9 3 5 7 4 3
30 31 24 18 14 25 26 28 30 31 30 29 27 24 23 20 18 17 18 17 16 15 14 15 14 13 14 8 6 6 8 10 11 10 9 9 9 7 8 5 8 15 10
30 31 29 21 19 22 27 30 33 33 31 28 28 25 23 22 21 20 18 17 17 15 14 14 15 16 19 13 9 11 10 9 9 9 8 8 9 7 8 3 7 8 10
30 32 32 31 21 22 26 27 31 31 29 28 28 26 25 24 22 19 18 17 16 14 12 14 15 19 22 18 15 13 10 8 7 6 5 5 6 5 5 5 2 1 3
27 32 33 33 27 22 23 26 30 32 32 30 28 26 27 26 23 22 20 19 18 16 17 14 17 20 25 23 19 17 13 9 6 3 1 2 3 5 6 6 5 7 10
27 31 33 34 26 27 24 22 25 28 30 28 27 26 25 28 27 23 21 20 19 18 18 17 18 22 27 27 23 21 17 13 10 8 5 4 4 6 8 8 7 6 2
27 29 32 32 25 26 22 23 24 21 25 27 27 26 24 26 27 24 24 24 22 19 20 18 20 23 27 28 27 26 22 18 15 13 11 10 10 8 8 10 10 9 8
29 29 31 30 26 28 31 25 22 21 23 22 23 25 26 26 28 27 26 26 23 23 23 21 22 22 27 29 29 28 26 21 20 19 17 14 16 14 11 12 13 13 12
28 29 29 28 30 31 30 29 27 26 24 24 21 22 25 29 29 29 28 28 28 26 24 25 23 25 27 31 31 30 29 26 23 22 21 18 19 18 17 15 15 16 16
25 28 27 28 28 27 25 29 31 29 29 30 27 24 24 24 27 31 33 32 31 31 29 29 27 26 26 29 33 32 33 31 27 26 24 22 22 21 21 20 20 18 17
25 27 27 27 27 28 23 27 31 33 35 34 33 31 28 24 22 22 23 28 30 30 28 29 29 28 28 28 30 33 33 33 31 29 29 27 26 25 23 25 23 24 21
19 30 30 28 30 31 27 20 24 30 33 36 36 34 29 29 29 27 24 24 25 25 25 25 26 28 30 31 30 32 36 36 36 35 34 33 31 28 27 27 28 28 27
14 14 12 23 31 34 28 25 21 22 24 32 38 37 34 33 31 30 30 29 29 28 29 28 28 27 29 31 31 31 35 38 39 40 39 36 36 34 31 30 31 32 31
13 14 14 17 24 28 30 26 24 21 23 22 34 42 41 39 36 34 33 33 33 35 34 34 34 32 30 28 30 33 33 38 41 42 43 42 40 38 37 35 34 36 34
22 20 16 17 20 20 23 29 31 28 25 23 25 35 43 42 45 40 39 38 39 40 41 41 41 38 33 32 30 33 35 36 42 44 45 47 45 44 41 40 39 39 39
18 20 21 22 23 22 23 26 37 34 30 27 25 29 38 45 44 43 43 42 43 44 43 43 42 40 36 34 34 33 37 38 41 45 50 50 50 49 47 45 45 43 42
17 17 20 22 25 30 31 34 37 37 35 30 28 28 36 41 44 45 45 42 38 38 43 45 46 41 37 37 35 36 39 43 42 43 48 53 54 52 52 51 47 48 44
28 27 27 29 29 30 34 33 32 35 32 34 32 32 32 40 41 41 39 39 40 41 43 42 43 43 43 43 42 40 43 43 45 46 46 49 52 53 53 53 51 50 45
28 28 27 28 26 26 33 30 31 30 33 34 33 32 32 35 44 44 44 44 43 42 42 39 37 36 36 37 39 45 47 47 47 50 50 51 52 54 55 54 53 49 45
29 32 30 32 27 27 34 33 26 30 29 29 30 29 30 29 38 46 44 43 43 41 41 42 40 41 40 39 37 40 46 48 51 51 57 58 58 58 57 58 50 47 47
23 30 35 33 32 27 30 33 29 28 27 29 27 28 30 32 33 36 39 41 42 42 39 42 43 41 40 41 39 40 46 53 52 56 59 62 56 64 68 62 51 46 40
22 24 30 32 33 28 28 35 30 29 30 28 28 28 27 28 30 32 33 35 35 33 34 33 32 32 34 35 39 46 51 52 58 54 60 65 68 69 67 68 58 50 63
19 22 26 28 30 28 24 31 32 30 29 29 26 28 30 32 31 31 30 31 30 30 30 31 34 36 39 40 40 41 47 49 52 61 61 60 63 72 73 70 65 65 64

GFSMW_700_spd_036.txt.gz
Wind_Speed
27 27 26 29 31 31 25 25 25 24 23 22 19 17 15 13 11 10 10 5 6 5 5 5 4 5 4 5 7 10 5 6 6 5 0 7 6 11 13 6 6 11 8
29 30 23 28 28 26 23 25 27 26 23 21 19 18 16 14 12 11 11 8 7 6 7 6 5 5 3 5 8 7 5 8 4 13 9 10 12 8 7 6 9 1 7
32 33 26 23 27 27 22 24 27 27 24 23 22 21 20 17 14 13 12 10 9 8 9 10 8 5 4 1 3 4 3 8 6 6 11 9 1 1 6 6 8 6 7
31 32 31 28 21 23 21 22 27 28 26 26 25 23 20 17 14 13 14 11 10 9 10 10 10 6 6 2 2 2 2 7 9 7 8 11 5 0 2 5 10 13 12
32 35 33 24 19 18 18 20 25 28 28 29 26 23 21 19 18 16 14 13 12 12 11 11 11 9 8 6 3 3 4 8 9 12 10 7 5 5 3 2 9 9 13
32 34 34 27 23 22 21 22 25 29 30 30 28 24 22 21 20 17 16 15 13 13 13 11 12 12 10 9 6 8 7 8 7 8 11 7 6 4 2 3 8 12 12
32 34 36 34 27 25 22 25 25 28 29 28 27 24 23 23 21 18 17 15 15 12 12 12 12 13 13 14 11 10 10 8 7 6 6 6 5 5 3 5 3 5 8
32 35 36 37 29 27 20 24 25 27 29 29 28 26 25 26 24 21 18 17 15 12 12 12 11 14 16 18 17 15 13 10 7 4 2 1 3 4 4 4 4 3 8
34 35 35 38 27 29 21 18 22 26 29 29 28 27 23 25 25 22 21 19 17 15 15 12 12 13 16 19 21 19 17 13 10 7 5 4 4 4 4 5 6 6 6
37 32 35 37 27 19 22 19 18 22 25 26 25 23 22 22 24 25 24 22 18 16 17 14 13 15 15 18 23 24 22 20 15 12 10 9 10 9 7 7 7 7 7
37 34 33 35 22 20 26 22 21 20 22 25 26 27 27 26 24 25 26 24 21 18 20 20 15 15 17 18 22 25 26 24 21 17 14 13 15 14 12 10 11 11 10
36 34 33 33 33 26 24 25 24 23 21 21 22 26 26 26 28 26 24 23 23 21 19 22 20 18 18 19 22 23 26 26 24 21 19 17 17 18 17 15 14 15 15
34 34 31 31 36 30 25 23 27 24 24 25 23 23 23 27 27 26 25 24 23 22 22 22 24 20 21 21 22 25 27 29 25 25 25 23 21 21 20 20 20 19 19
31 33 30 31 33 34 29 27 25 29 29 28 26 24 23 23 24 25 26 27 25 26 26 25 25 27 24 25 24 25 28 30 31 29 28 27 27 24 23 24 24 25 24
28 31 28 33 30 26 26 25 23 24 28 32 29 27 25 24 25 24 22 21 22 20 22 24 26 24 25 25 26 24 25 27 31 33 32 29 29 29 27 28 28 28 30
19 21 31 27 26 36 28 26 23 20 22 25 26 29 30 29 30 28 26 25 24 24 24 24 24 23 21 21 22 25 26 27 28 32 35 35 33 33 32 32 32 32 32
15 15 20 28 30 29 28 33 28 23 21 20 20 21 28 35 34 32 31 31 28 26 25 25 25 24 22 22 23 23 24 27 30 30 34 39 38 38 37 37 36 37 37
13 12 11 14 26 36 39 41 38 29 27 25 22 21 20 27 37 35 34 33 32 31 29 29 27 27 25 25 24 26 28 29 29 33 33 38 41 42 41 41 42 40 41
15 16 16 19 17 18 18 21 27 30 31 29 27 23 23 21 28 36 38 39 36 35 35 34 34 33 32 32 31 33 34 34 34 34 35 37 40 43 44 45 46 45 45
20 22 22 21 22 24 24 24 30 34 39 34 31 28 26 26 23 30 37 41 40 40 41 40 39 38 38 38 38 40 43 44 40 40 42 42 41 41 44 48 49 49 48
24 25 25 27 29 30 34 34 26 34 35 34 34 33 32 30 29 28 34 39 42 43 43 43 43 42 38 38 39 41 46 44 47 47 48 46 45 45 46 49 49 51 47
25 26 29 29 32 36 37 40 42 36 30 32 32 33 36 36 35 34 33 39 43 45 45 45 42 40 40 40 36 35 40 42 50 53 55 57 54 49 51 53 54 52 52
25 29 29 32 31 36 34 35 34 33 34 34 34 34 34 35 35 35 36 38 42 42 42 43 43 44 42 42 41 41 42 42 49 47 53 59 64 60 59 56 56 56 57
18 21 24 31 35 36 32 30 32 35 36 33 32 31 31 30 31 31 31 30 36 40 42 45 46 44 42 42 45 46 45 45 46 47 50 54 59 64 66 66 65 61 59
19 18 18 23 31 36 35 32 30 35 37 35 33 30 29 28 25 26 29 29 29 33 36 38 39 41 40 40 39 37 39 38 36 39 43 48 52 54 61 68 69 70 65
14 14 10 17 22 31 34 32 29 28 34 35 31 30 29 27 27 27 25 24 24 26 28 28 28 28 30 31 32 34 37 42 45 45 47 48 49 54 56 60 64 67 68

GFSMW_700_spd_042.txt.gz
Wind_Speed
17 20 19 19 20 19 19 21 26 24 23 23 22 19 15 12 8 7 7 6 6 6 6 5 2 4 5 9 8 5 5 4 9 6 11 9 4 11 9 14 14 12 12
22 22 24 23 23 19 18 21 22 25 23 21 20 17 15 13 11 10 9 8 7 7 6 4 2 2 4 6 9 5 6 10 13 14 14 15 10 11 11 11 14 13 12
22 23 26 25 25 23 18 20 22 23 24 22 22 22 22 21 18 13 10 9 9 8 7 6 5 3 3 5 7 5 6 7 7 8 12 10 7 8 13 12 13 15 12
23 22 24 27 27 23 21 19 21 24 26 26 26 25 20 16 12 11 11 11 10 9 8 8 6 5 5 6 6 5 6 8 9 11 13 12 7 10 13 15 12 14 14
21 14 24 17 14 26 22 22 21 24 26 28 28 25 23 19 17 16 14 13 12 10 9 8 7 7 6 6 6 5 7 10 11 13 13 12 10 12 9 8 13 14 16
18 12 17 18 17 18 19 22 25 26 27 29 30 28 24 22 20 18 16 14 12 11 9 8 6 6 8 9 8 9 9 13 12 12 11 11 11 9 9 9 10 13 15
28 15 23 22 22 21 20 22 27 30 30 30 30 28 25 23 21 18 16 15 13 9 8 9 8 7 10 11 10 12 10 11 11 11 9 9 9 10 10 11 10 9 11
33 24 20 21 21 22 21 20 27 30 30 29 29 28 26 26 23 20 18 16 13 12 13 11 11 10 10 13 14 14 13 10 9 9 9 8 8 8 8 9 8 8 7
34 27 25 21 15 17 20 21 22 28 28 28 29 29 27 27 24 21 18 17 16 15 14 11 11 11 10 13 17 16 16 13 11 9 8 6 5 5 5 6 7 6 7
38 25 27 25 17 16 18 16 18 25 27 28 30 28 25 25 24 24 22 19 17 16 15 12 11 12 11 11 15 19 19 18 15 13 10 8 5 3 1 1 2 4 6
43 31 30 28 22 17 20 19 19 21 30 30 29 28 26 26 27 26 23 21 19 18 17 15 13 14 13 13 12 17 21 20 19 17 14 13 11 7 5 5 5 6 7
34 39 38 32 29 21 19 18 20 24 28 30 27 28 28 27 28 26 24 21 21 20 18 16 15 15 15 12 8 10 16 21 21 21 20 17 16 13 12 11 9 9 9
36 37 45 37 32 26 22 19 18 22 25 28 29 31 30 30 28 26 24 23 21 22 22 20 17 12 11 11 10 10 12 15 20 22 23 21 22 19 18 17 16 16 16
35 33 42 37 35 26 22 20 19 21 24 28 30 30 30 28 26 24 25 25 22 22 23 21 17 14 14 15 14 13 13 13 15 20 23 24 25 25 24 24 24 23 23
34 33 35 38 36 28 23 21 17 19 20 23 26 27 26 26 26 26 24 24 25 23 21 21 19 18 18 17 16 16 15 16 17 18 19 22 25 26 27 28 27 29 29
29 35 34 35 38 32 24 25 22 20 21 21 21 21 22 21 22 23 23 24 23 22 22 20 19 19 19 17 16 16 16 17 19 19 19 20 21 24 28 30 31 32 35
33 33 34 34 35 33 24 25 22 19 22 22 22 22 21 22 20 19 20 21 21 21 22 23 22 21 19 19 17 16 17 18 18 18 18 19 20 22 24 25 28 33 35
31 36 35 33 37 34 30 21 20 14 16 20 20 21 24 26 26 26 24 22 23 25 25 24 24 25 23 22 21 19 20 22 21 21 20 22 21 23 23 25 27 29 31
30 31 37 40 38 37 34 30 26 23 25 24 22 20 19 21 23 26 28 29 29 29 29 28 28 27 25 25 25 26 27 28 28 28 28 28 29 30 32 34 36 37 37
35 33 33 33 38 42 40 39 35 32 29 30 24 19 17 19 20 21 21 21 27 33 34 34 34 33 33 33 32 34 35 34 35 33 31 30 30 33 37 40 42 42 38
32 33 32 35 36 34 32 36 33 28 27 26 26 28 28 26 25 21 19 19 20 22 27 35 38 37 37 38 38 38 39 36 39 37 34 34 34 35 39 41 42 41 42
29 27 28 27 31 32 30 28 26 27 27 27 26 24 27 28 28 26 24 24 25 25 24 24 27 34 40 42 42 43 42 41 41 38 36 37 38 40 42 44 43 43 45
31 27 24 24 27 32 32 30 30 29 29 28 30 30 32 30 30 31 33 34 34 32 32 31 29 28 30 37 43 45 45 44 43 40 40 41 42 43 44 46 46 45 42
31 27 26 25 27 28 37 35 30 30 31 31 31 33 34 32 31 32 32 34 34 33 34 34 33 32 33 35 37 41 42 43 43 41 41 41 43 43 42 35 32 35 41
28 27 27 28 28 27 33 39 42 40 37 35 35 36 37 39 38 38 36 34 33 33 34 34 34 35 35 34 35 36 35 37 37 38 39 38 34 31 32 37 41 44 49
24 25 24 25 26 27 26 32 40 43 46 45 42 41 42 44 45 45 41 37 36 34 32 31 32 32 32 31 28 27 29 32 32 32 28 27 31 35 40 45 50 55 58

GFSMW_700_spd_045.txt.gz
Wind_Speed
21 21 23 27 29 26 25 32 30 29 28 25 23 20 17 15 14 11 7 7 7 6 5 2 3 4 5 7 6 4 4 7 8 7 11 12 12 12 12 13 9 10 11
23 24 23 24 27 30 29 29 31 32 29 27 22 18 15 13 12 12 10 7 6 6 7 5 1 3 5 5 6 7 5 9 9 8 9 12 11 11 12 13 13 12 10
20 17 22 25 23 25 31 33 33 33 30 27 24 22 21 19 17 14 10 8 7 7 7 7 4 3 3 4 6 8 6 9 9 13 13 12 10 10 11 11 11 12 11
27 23 20 16 26 24 27 31 33 32 30 28 26 24 22 18 13 11 11 11 10 8 7 6 6 5 4 4 3 8 8 8 8 11 11 11 11 11 11 11 11 11 11
28 27 22 22 9 25 27 29 30 31 30 28 27 25 23 19 16 15 14 13 13 11 9 8 9 8 6 6 6 7 8 8 9 9 10 11 11 10 11 11 11 10 11
28 23 24 25 18 19 25 27 29 31 30 30 28 27 25 22 21 20 17 15 14 12 10 9 10 10 9 8 8 9 9 10 10 10 10 10 9 9 11 12 11 10 11
33 23 28 32 28 22 27 29 29 31 31 31 31 29 26 24 23 21 18 15 14 12 11 10 9 10 11 11 11 12 12 11 11 11 10 10 9 9 10 10 10 11 11
38 32 25 29 29 25 21 26 30 31 32 32 32 30 28 27 26 24 21 18 15 14 14 12 11 12 15 15 14 15 15 14 12 11 11 11 11 10 9 8 8 8 8
42 37 32 21 23 24 25 18 25 28 29 30 30 31 30 29 28 25 23 21 19 17 16 14 13 13 15 16 17 17 16 15 14 12 11 10 10 8 6 5 5 4 4
45 46 38 31 19 18 21 20 18 20 23 26 29 30 30 29 28 27 26 23 21 20 17 15 14 14 15 18 19 19 18 17 16 14 12 10 8 7 5 3 1 1 3
33 45 39 36 26 19 20 19 19 21 22 26 28 30 31 30 30 29 28 25 23 22 20 18 16 16 15 16 18 21 21 20 18 17 14 12 10 9 8 6 5 5 5
27 37 40 36 34 26 25 23 23 22 21 22 27 28 30 32 32 30 29 27 25 24 22 21 19 17 15 13 14 18 23 23 22 21 19 16 16 15 14 13 11 11 12
37 30 39 41 37 32 27 26 25 25 22 22 27 30 31 32 33 31 29 29 27 27 24 23 20 17 16 14 13 15 17 20 24 24 23 21 22 20 20 19 19 18 18
42 40 36 35 35 34 28 27 25 25 24 25 27 32 31 31 30 29 29 29 27 27 25 24 21 20 19 19 17 15 14 14 16 21 25 25 25 25 24 25 25 26 26
47 45 36 37 31 36 32 25 24 23 24 25 28 30 30 30 29 28 28 28 27 25 23 24 23 22 22 22 19 17 15 14 15 16 18 20 23 26 29 30 29 30 31
43 40 36 31 31 36 32 26 26 24 25 20 22 25 26 27 28 27 26 26 26 26 24 23 22 22 22 20 19 18 18 17 17 18 18 20 21 22 24 27 29 31 33
35 40 37 33 32 35 32 27 26 23 19 17 14 14 18 21 22 22 24 24 23 23 24 23 22 20 20 19 18 18 19 19 19 19 19 20 20 20 22 24 26 29 31
29 32 33 29 29 33 33 28 31 21 18 18 18 17 16 16 16 18 19 20 21 20 21 22 22 23 22 21 20 19 20 22 20 20 20 21 20 21 23 24 26 27 29
22 21 28 31 33 34 37 28 31 25 23 19 18 18 18 20 22 23 22 21 22 22 22 22 23 25 24 24 23 23 24 24 24 23 24 25 26 27 29 32 34 36 35
25 29 33 35 36 32 39 32 28 28 25 23 22 17 15 15 16 14 17 23 29 30 29 29 29 29 29 29 29 30 30 31 31 30 30 30 30 31 33 35 36 34 33
27 31 36 36 38 35 38 38 33 30 27 24 28 24 20 17 16 17 19 19 22 24 27 31 33 35 35 35 36 37 39 38 38 36 34 34 34 35 36 36 36 35 37
29 29 31 33 36 37 39 41 41 37 35 32 31 30 26 22 21 20 22 23 22 23 24 24 25 28 33 37 39 39 41 41 43 41 40 39 39 39 38 37 38 38 40
31 30 28 27 29 30 32 36 38 39 38 34 28 31 30 26 26 25 23 26 27 26 25 24 25 26 27 29 31 33 38 42 45 44 43 42 42 40 38 38 36 38 38
32 30 28 27 27 28 29 29 30 33 34 34 36 38 37 35 34 32 31 28 34 26 29 29 29 29 29 30 32 34 35 36 38 40 41 41 38 36 36 34 35 29 30
34 34 32 28 27 27 28 30 32 34 35 35 36 37 36 36 37 37 33 30 30 31 29 29 29 29 28 28 31 33 34 34 35 36 34 32 30 31 31 27 25 29 34
26 26 29 28 27 25 24 25 27 31 35 34 32 34 35 36 36 37 37 37 36 34 37 33 31 31 30 30 31 32 33 32 29 28 27 26 25 24 24 26 29 33 38

GFSMW_700_spd_048.txt.gz
Wind_Speed
22 25 29 31 28 29 30 31 31 29 27 24 22 19 15 16 15 13 10 7 7 7 6 5 2 2 3 3 2 4 9 9 8 5 11 12 6 8 9 10 11 11 8
25 27 29 33 32 28 29 33 33 31 28 25 21 18 16 16 16 16 12 8 6 7 7 5 3 3 4 3 3 2 7 7 9 9 9 11 9 8 8 10 10 10 10
21 25 29 30 33 33 31 30 33 32 30 27 24 22 23 23 22 16 12 9 7 6 6 5 5 4 3 3 4 3 5 6 7 10 12 10 7 6 5 7 8 7 8
26 23 25 24 28 33 33 29 30 32 31 30 28 25 22 20 17 15 12 10 9 7 7 7 6 4 4 3 4 4 6 8 9 11 11 11 10 8 6 5 5 5 6
25 25 21 15 16 29 34 34 32 33 34 32 30 27 23 20 18 16 14 13 11 9 9 9 8 7 5 5 4 5 7 10 12 11 10 10 10 9 8 7 7 6 6
31 26 25 24 20 20 29 35 36 35 36 35 33 29 26 23 20 17 16 14 12 11 10 10 10 9 8 7 7 8 8 9 10 11 11 11 10 10 10 10 10 9 9
34 30 28 29 26 22 29 31 34 35 36 36 36 31 27 25 22 19 17 15 13 11 10 11 10 10 10 10 10 11 11 10 10 10 10 10 10 10 11 11 10 9 10
35 35 32 26 27 26 28 32 34 35 36 36 35 32 29 27 24 22 20 17 14 13 13 14 13 14 15 15 14 14 13 13 11 10 10 11 11 11 10 9 9 7 6
35 33 33 33 28 29 29 30 33 34 35 34 34 32 30 29 27 24 22 20 18 18 18 17 17 16 17 17 17 17 16 14 13 12 11 10 10 11 9 7 6 5 4
33 38 34 33 30 30 30 30 29 33 33 33 34 32 30 28 28 27 25 23 21 20 20 19 18 16 18 19 20 19 19 18 16 14 13 11 9 8 7 6 5 3 2
17 24 29 32 33 32 32 29 30 30 33 34 34 34 32 31 30 29 27 25 24 23 23 21 19 17 17 18 20 22 22 21 20 19 17 15 13 11 9 7 6 5 6
17 15 19 30 36 36 31 28 32 30 27 28 30 32 31 32 32 30 28 27 26 25 24 24 21 18 17 17 17 21 24 23 23 21 20 18 17 15 14 13 11 11 12
30 28 22 35 31 35 35 30 30 30 28 25 29 29 31 33 32 30 29 29 28 27 26 26 23 20 18 17 19 19 22 25 25 25 24 22 22 20 19 18 18 18 19
25 30 30 30 37 34 36 34 31 31 30 28 27 29 30 31 31 30 30 30 29 28 27 25 23 21 21 19 19 20 21 21 22 26 26 25 26 25 24 24 23 24 25
27 33 35 37 35 36 36 35 33 29 30 30 30 28 29 29 30 30 30 30 30 28 26 26 25 24 24 22 22 21 19 19 19 19 20 22 25 26 27 28 26 28 30
33 37 40 39 36 33 35 33 29 30 30 32 30 27 25 27 28 28 29 29 28 27 25 25 25 25 25 24 22 20 19 18 18 17 17 19 20 21 22 25 26 29 31
47 51 51 46 40 28 28 29 30 28 29 21 21 22 23 25 26 26 27 27 27 27 26 24 24 23 22 22 22 22 22 21 20 19 19 19 20 21 22 23 25 27 29
32 44 45 46 39 27 31 32 31 27 27 21 20 18 18 21 23 24 24 24 25 25 25 24 22 21 20 20 21 21 23 23 21 21 20 21 20 21 22 22 23 23 27
21 30 45 41 32 33 35 36 31 29 29 23 19 19 17 17 19 20 19 19 19 19 19 19 20 20 19 20 20 21 23 24 23 21 22 22 22 22 24 27 30 31 33
30 36 41 42 34 31 35 38 34 31 29 23 18 20 20 20 20 18 18 18 19 19 20 20 20 21 22 22 23 24 26 27 27 25 26 26 26 28 31 33 35 34 32
28 30 33 33 35 34 32 40 35 32 28 25 24 22 18 16 14 13 12 14 17 20 23 26 27 27 28 29 29 30 31 31 31 31 31 32 33 34 36 36 36 36 35
20 28 32 32 36 33 29 38 35 33 30 29 27 24 21 20 20 18 19 21 23 23 23 24 25 28 29 31 32 33 35 35 36 37 37 37 38 38 39 40 39 37 35
18 19 21 25 30 34 32 37 38 35 34 32 30 28 26 25 26 25 25 24 23 25 24 25 23 21 21 23 25 28 30 32 34 36 38 39 40 41 42 41 39 36 34
23 23 22 22 24 27 30 30 41 41 40 39 35 33 31 29 30 30 29 24 22 22 29 25 21 21 22 24 24 25 27 29 31 33 33 34 34 35 36 36 33 31 30
26 26 25 22 21 20 21 23 26 30 31 32 34 34 33 32 32 32 31 29 26 28 25 25 24 23 22 24 27 27 27 27 29 31 32 31 30 31 31 28 27 29 25
27 26 26 26 25 24 24 23 23 24 25 27 29 31 34 36 36 35 35 34 33 30 28 28 31 28 28 28 29 29 27 27 28 29 28 28 29 26 24 26 24 23 25